Weather History for KW22 - May, 2013

Change the Weather History Date:

Tuesday, May 28, 2013

  Actual Average (KEKN) Record (KEKN)
Temperature  
Mean Temperature 71 °F 61 °F  
Max Temperature 78 °F 73 °F 88 °F (1914)
Min Temperature 64 °F 49 °F 31 °F (1994)
Degree Days  
Heating Degree Days 0 5  
Month to date heating degree days 222  
Since 1 July heating degree days 5785  
Cooling Degree Days 6 1  
Month to date cooling degree days 15  
Year to date cooling degree days 18  
Growing Degree Days 21 (Base 50)    
Moisture  
Dew Point 57 °F    
Average Humidity 61    
Maximum Humidity 83    
Minimum Humidity 44    
Precipitation  
Precipitation 0.02 in 0.16 in 0.99 in (2004)
Month to date precipitation 4.62  
Year to date precipitation 18.71  
Snow  
Snow 0.00 in - - ()
Month to date snowfall  
Since 1 September snowfall  
Snow Depth -    
Sea Level Pressure  
Sea Level Pressure 30.13 in    
Wind  
Wind Speed 3 mph (SW)    
Max Wind Speed 15 mph    
Max Gust Speed 24 mph    
Visibility 10 miles    
Events      
T = Trace of Precipitation, MM = Missing Value Source: NWS Daily Summary

Daily Weather History Graph

Daily Weather History Graph

Search for Another Location

Airport or City:

Trip Planner

Search our weather history database for the weather conditions in past years. The results will help you decide how hot, cold, wet, or windy it might be!

Date:

Astronomy

May. 28, 2013 Rise Set
Actual Time 5:59 AM EDT 8:38 PM EDT
Civil Twilight 5:27 AM EDT 9:09 PM EDT
Nautical Twilight 4:48 AM EDT 9:48 PM EDT
Astronomical Twilight 4:05 AM EDT 10:32 PM EDT
Moon No Moon Rise 9:44 AM EDT (5/28)
Length of Visible Light 15h 41m
Length of Day
14h 39m
Waning Gibbous, 83% of the Moon is Illuminated
May 28
Waning Gibbous
May 31
Last Quarter
Jun 8
New
Jun 16
First Quarter
Jun 23
Full

Hourly Weather History & Observations

Time (EDT) Temp. Dew Point Humidity Pressure Visibility Wind Dir Wind Speed Gust Speed Precip Events Conditions
12:15 AM 64.4 °F 51.8 °F 64% 30.14 in 10.0 mi Calm Calm - N/A   Partly Cloudy
12:35 AM 64.4 °F 51.8 °F 64% 30.14 in 10.0 mi SSE 3.5 mph - N/A   Scattered Clouds
12:55 AM 64.4 °F 51.8 °F 64% 30.13 in 10.0 mi Calm Calm - N/A   Clear
1:15 AM 64.4 °F 51.8 °F 64% 30.12 in 10.0 mi Calm Calm - N/A   Clear
1:35 AM 64.4 °F 51.8 °F 64% 30.12 in 10.0 mi Calm Calm - N/A   Clear
1:55 AM 64.4 °F 53.6 °F 68% 30.12 in 10.0 mi Calm Calm - N/A   Partly Cloudy
2:15 AM 64.4 °F 53.6 °F 68% 30.11 in 10.0 mi Calm Calm - N/A   Clear
2:35 AM 64.4 °F 53.6 °F 68% 30.11 in 10.0 mi Calm Calm - N/A   Mostly Cloudy
2:55 AM 64.4 °F 53.6 °F 68% 30.10 in 10.0 mi Calm Calm - N/A   Mostly Cloudy
3:15 AM 64.4 °F 53.6 °F 68% 30.10 in 10.0 mi Calm Calm - N/A   Mostly Cloudy
3:35 AM 64.4 °F 53.6 °F 68% 30.10 in 10.0 mi Calm Calm - N/A   Mostly Cloudy
3:55 AM 64.4 °F 53.6 °F 68% 30.09 in 10.0 mi Calm Calm - N/A   Mostly Cloudy
4:15 AM 64.4 °F 55.4 °F 73% 30.09 in 10.0 mi Calm Calm - N/A   Partly Cloudy
4:35 AM 64.4 °F 55.4 °F 73% 30.10 in 10.0 mi Calm Calm - N/A   Clear
4:55 AM 64.4 °F 55.4 °F 73% 30.10 in 10.0 mi Calm Calm - N/A   Clear
5:15 AM 64.4 °F 55.4 °F 73% 30.11 in 10.0 mi Calm Calm - N/A   Partly Cloudy
5:35 AM 64.4 °F 55.4 °F 73% 30.12 in 10.0 mi Calm Calm - N/A   Partly Cloudy
5:55 AM 66.2 °F 55.4 °F 68% 30.12 in 10.0 mi Calm Calm - N/A   Partly Cloudy
6:15 AM 64.4 °F 55.4 °F 73% 30.13 in 10.0 mi SSW 4.6 mph - N/A   Partly Cloudy
6:35 AM 66.2 °F 55.4 °F 68% 30.13 in 10.0 mi SSW 3.5 mph - N/A   Clear
6:55 AM 66.2 °F 55.4 °F 68% 30.14 in 10.0 mi Calm Calm - N/A   Mostly Cloudy
7:15 AM 68.0 °F 55.4 °F 64% 30.14 in 10.0 mi SW 8.1 mph - N/A   Mostly Cloudy
7:35 AM 69.8 °F 55.4 °F 60% 30.15 in 10.0 mi SSW 11.5 mph - N/A   Mostly Cloudy
7:55 AM 69.8 °F 55.4 °F 60% 30.16 in 10.0 mi SW 8.1 mph - N/A   Scattered Clouds
8:15 AM 69.8 °F 55.4 °F 60% 30.17 in 10.0 mi SW 9.2 mph - N/A   Scattered Clouds
8:35 AM 69.8 °F 57.2 °F 64% 30.16 in 10.0 mi SW 6.9 mph - N/A   Partly Cloudy
8:55 AM 66.2 °F 57.2 °F 73% 30.17 in 5.0 mi SW 3.5 mph - 0.02 in   Haze
9:15 AM 66.2 °F 60.8 °F 83% 30.17 in 10.0 mi Calm Calm - N/A   Mostly Cloudy
9:35 AM 68.0 °F 60.8 °F 78% 30.17 in 10.0 mi SW 5.8 mph - N/A   Mostly Cloudy
9:55 AM 69.8 °F 59.0 °F 68% 30.18 in 10.0 mi SW 10.4 mph - N/A   Partly Cloudy
10:15 AM 71.6 °F 60.8 °F 69% 30.17 in 10.0 mi SSW 8.1 mph - N/A   Clear
10:35 AM 73.4 °F 60.8 °F 65% 30.17 in 10.0 mi SSW 8.1 mph 18.4 mph N/A   Partly Cloudy
10:55 AM 73.4 °F 60.8 °F 65% 30.17 in 10.0 mi SSW 13.8 mph 24.2 mph N/A   Clear
11:15 AM 75.2 °F 59.0 °F 57% 30.17 in 10.0 mi SW 12.7 mph 18.4 mph N/A   Clear
11:35 AM 75.2 °F 59.0 °F 57% 30.16 in 10.0 mi SSW 15.0 mph 23.0 mph N/A   Clear
11:55 AM 75.2 °F 59.0 °F 57% 30.16 in 10.0 mi SW 13.8 mph 19.6 mph N/A   Clear
12:15 PM 77.0 °F 60.8 °F 57% 30.16 in 10.0 mi WSW 11.5 mph 19.6 mph N/A   Clear
12:35 PM 77.0 °F 59.0 °F 54% 30.17 in 10.0 mi WSW 15.0 mph 24.2 mph N/A   Clear
12:55 PM 78.8 °F 57.2 °F 47% 30.17 in 9.0 mi West 5.8 mph 17.3 mph N/A   Partly Cloudy
1:15 PM 78.8 °F 55.4 °F 44% 30.16 in 10.0 mi WSW 8.1 mph 19.6 mph N/A   Scattered Clouds
1:35 PM 77.0 °F 57.2 °F 50% 30.16 in 10.0 mi WSW 10.4 mph - N/A   Scattered Clouds
1:55 PM 78.8 °F 57.2 °F 47% 30.16 in 10.0 mi SW 12.7 mph - N/A   Partly Cloudy
2:15 PM 77.0 °F 55.4 °F 47% 30.15 in 10.0 mi WSW 11.5 mph - N/A   Partly Cloudy
2:35 PM 78.8 °F 55.4 °F 44% 30.15 in 10.0 mi WSW 11.5 mph 19.6 mph N/A   Mostly Cloudy
2:55 PM 78.8 °F 55.4 °F 44% 30.15 in 10.0 mi SW 11.5 mph 16.1 mph N/A   Mostly Cloudy
3:15 PM 77.0 °F 55.4 °F 47% 30.14 in 10.0 mi SW 8.1 mph - N/A   Partly Cloudy
3:35 PM 77.0 °F 57.2 °F 50% 30.14 in 10.0 mi SW 9.2 mph - N/A   Partly Cloudy
3:55 PM 78.8 °F 57.2 °F 47% 30.14 in 10.0 mi WSW 8.1 mph - N/A   Partly Cloudy
4:15 PM 78.8 °F 57.2 °F 47% 30.14 in 10.0 mi SW 12.7 mph 18.4 mph N/A   Partly Cloudy
4:35 PM 78.8 °F 57.2 °F 47% 30.13 in 10.0 mi SSW 9.2 mph 18.4 mph N/A   Clear
4:55 PM 78.8 °F 55.4 °F 44% 30.13 in 10.0 mi SSW 4.6 mph - N/A   Clear
5:15 PM 78.8 °F 57.2 °F 47% 30.12 in 10.0 mi SSW 5.8 mph 16.1 mph N/A   Clear
5:35 PM 78.8 °F 57.2 °F 47% 30.11 in 10.0 mi SW 6.9 mph - N/A   Clear
5:55 PM 78.8 °F 57.2 °F 47% 30.11 in 10.0 mi SW 6.9 mph 16.1 mph N/A   Clear
6:15 PM 78.8 °F 55.4 °F 44% 30.10 in 10.0 mi SW 8.1 mph 18.4 mph N/A   Clear
6:35 PM 78.8 °F 55.4 °F 44% 30.09 in 10.0 mi SSW 10.4 mph - N/A   Clear
6:55 PM 78.8 °F 57.2 °F 47% 30.09 in 10.0 mi Calm Calm - N/A   Clear
7:15 PM 78.8 °F 57.2 °F 47% 30.08 in 10.0 mi Calm Calm - N/A   Clear
7:35 PM 77.0 °F 57.2 °F 50% 30.07 in 10.0 mi Calm Calm - N/A   Clear
7:55 PM 75.2 °F 57.2 °F 53% 30.07 in 10.0 mi Calm Calm - N/A   Clear
8:15 PM 75.2 °F 57.2 °F 53% 30.08 in 10.0 mi Calm Calm - N/A   Clear
8:35 PM 75.2 °F 57.2 °F 53% 30.07 in 10.0 mi Calm Calm - N/A   Clear
8:55 PM 73.4 °F 59.0 °F 61% 30.08 in 10.0 mi Calm Calm - N/A   Clear
9:15 PM 71.6 °F 59.0 °F 64% 30.08 in 10.0 mi Calm Calm - N/A   Clear
9:35 PM 71.6 °F 57.2 °F 60% 30.09 in 10.0 mi Calm Calm - N/A   Clear
9:55 PM 69.8 °F 59.0 °F 68% 30.10 in 10.0 mi Calm Calm - N/A   Clear
10:15 PM 69.8 °F 57.2 °F 64% 30.10 in 10.0 mi Calm Calm - N/A   Clear
10:35 PM 68.0 °F 57.2 °F 68% 30.11 in 10.0 mi Calm Calm - N/A   Clear
10:55 PM 66.2 °F 59.0 °F 78% 30.11 in 10.0 mi Calm Calm - N/A   Clear
11:15 PM 66.2 °F 59.0 °F 78% 30.11 in 10.0 mi Calm Calm - N/A   Clear
11:35 PM 64.4 °F 59.0 °F 83% 30.11 in 10.0 mi Calm Calm - N/A   Clear
11:55 PM 66.2 °F 59.0 °F 78% 30.12 in 10.0 mi Calm Calm - N/A   Clear